Showing default

COSMOS 1975, 19573

Orbit data source: Space-Track

COSMOS 1975, 19573 is a payload satellite owned by GRU (CIS) in LEO that was launched on Tue, 11 Oct 1988 UTC via a TSIKLON-3 launch vehicle from the Plesetsk Missile And Space Complex (PKMTR). Payload-class satellites include a variety of spacecraft equipped with specific instruments for various scientific and technological missions. These include communications satellites like Starlink; space stations such as the ISS; scientific satellites like the Hubble; Earth observation satellites from companies like Planet Labs, Umbra, and HawkEye 360; GPS; miniature CubeSats for education and research; and military/defense satellites.

Loading next visibility...
Identifier
19573, 1988-093A
Orbit
LEO
Last TLE update
15 hours ago
Origin
Manufacturer
Yuzhnoe
Mission
Defense Sigint
Bus & Motor
TSELINA-D, Unknown motor
Mass
1,750 kg wet, 1,750 kg dry
Launch date (UTC)
1988-10-11 (37 years ago)
Launch vehicle
TSIKLON-3
Launch site
Plesetsk Missile And Space Complex (PKMTR)
Object type
Payload
Rocket body
Debris
Shape & HBR
Cyl + 1 Ant, 13.14 m
Radar Cross Section
13.217 m², Large (>1 m²)

Expand to show TLE details & history

TLE from 15 hours ago
0 COSMOS 1975
1 19573U 88093A   25189.85974097  .00003969  00000-0  16576-3 0  9992
2 19573  82.5221   1.4515 0011779 315.4484  44.5804 15.23293226982220
Epoch: 2025-07-08T20:38Z
TLE epoch observation values (Epoch: 2025-07-08T20:38:01.619Z)
Latitude
-0.00012°
Longitude
124.89606°
Altitude
493.244 km
Speed
7.621 km/s
True Right ascension
00h 05m 48s
True Declination
0° 00' 00"
Sunlit
Object was in daylight at epoch
Visualization orbit readout
Latitude
-68.41914°
Longitude
-36.46792°
Altitude
518.061 km
Speed
7.605 km/s
Apparent Right ascension
12h 30m 46s
Apparent Declination
-54° 53' 59"
Sunlit
Object is in daylight
Visualization observer readout
Local Sidereal Time
00:05:10
Azimuth
193.802° SSW
Elevation
-74.419°
Doppler factor
1
Orbital elements
Apogee altitude
500.973 km
Perigee altitude
484.786 km
Semi-major axis
6,871.017 km
Eccentricity
0.00118
Inclination
82.5221°
RAAN
1.4515°
Arg. of periapsis
315.4484°
True anomaly
Unknown
Mean anomaly
44.5804°
Eccentric anomaly
Unknown
Mean motion
3.81076 °/min
Orbital period
94.47 mins
BSTAR
0.00016576
Loading maneuver chart data...
Loading SW <> Apogee altitude chart data...
Loading historical data...
Loading historical data...
Loading historical data...
Loading historical data...
Loading historical data...
Loading historical data...
Loading historical data...
Other satellites on launch #93 in the year 1988 (1988-10-11 UTC)

COSMOS 1975 Visibility forecast

Observer location: undefined°, undefined°

Span
Click to sort rows by Start time (UTC) header in descending order
Start Az.
Max El. time (UTC)
Max El. Az.
Max El.
End time (UTC)
End Az.
6 mins2025-07-09 12:31:56.766Z206.248° SW2025-07-09 12:34:56.766Z300.782° NW37.559°2025-07-09 12:37:56.766Z356.323° N
5 mins2025-07-10 00:00:56.766Z314.468° NW2025-07-10 00:02:56.766Z268.663° W24.135°2025-07-10 00:05:56.766Z212.404° SW
|